| time (UTC) | temp F | wind direction | speed MPH | gust MPH | rain 1hr in | rain 24hr in | rain mn in | humidity % | barometer mb |
| 20260901072020 | 85 | 41 | 3.0 | 5.0 | 0.00 | 0.00 | 0.00 | 56 | 1016.5 |
| 20260901071520 | 85 | 150 | 3.0 | 6.0 | 0.00 | 0.00 | 0.00 | 56 | 1016.3 |
| 20260901071018 | 85 | 114 | 3.0 | 5.0 | 0.00 | 0.00 | 0.00 | 56 | 1016.3 |
| 20260901070514 | 85 | 14 | 1.0 | 3.0 | 0.00 | 0.00 | 0.00 | 56 | 1016.4 |
| 20260901070009 | 86 | 39 | 2.0 | 3.0 | 0.00 | 0.00 | 0.00 | 56 | 1016.2 |
| 20260901065504 | 86 | 30 | 1.0 | 3.0 | 0.00 | 0.00 | 0.00 | 55 | 1016.3 |
| 20260901064958 | 86 | 47 | 2.0 | 3.0 | 0.00 | 0.00 | 0.00 | 55 | 1016.6 |
| 20260901064454 | 86 | 171 | 5.0 | 6.0 | 0.00 | 0.00 | 0.00 | 55 | 1016.3 |
| 20260901063951 | 86 | 44 | 2.0 | 6.0 | 0.00 | 0.00 | 0.00 | 54 | 1016.4 |
| 20260901063448 | 86 | 157 | 3.0 | 5.0 | 0.00 | 0.00 | 0.00 | 54 | 1016.2 |
| 20260901062943 | 86 | 102 | 3.0 | 6.0 | 0.00 | 0.00 | 0.00 | 54 | 1016.3 |
| 20260901062439 | 86 | 189 | 3.0 | 3.0 | 0.00 | 0.00 | 0.00 | 54 | 1015.9 |
| 20260901061935 | 86 | 131 | 5.0 | 7.0 | 0.00 | 0.00 | 0.00 | 54 | 1016.0 |
| 20260901061431 | 86 | 29 | 0.0 | 5.0 | 0.00 | 0.00 | 0.00 | 54 | 1015.9 |
| 20260901060925 | 86 | 115 | 4.0 | 5.0 | 0.00 | 0.00 | 0.00 | 53 | 1016.1 |
| 20260901060421 | 86 | 200 | 5.0 | 7.0 | 0.00 | 0.00 | 0.00 | 53 | 1016.0 |
| 20260901055920 | 87 | 27 | 1.0 | 6.0 | 0.00 | 0.00 | 0.00 | 52 | 1015.9 |
| 20260901055417 | 87 | 35 | 2.0 | 6.0 | 0.00 | 0.00 | 0.00 | 52 | 1016.0 |
| 20260901054913 | 87 | 351 | 1.0 | 5.0 | 0.00 | 0.00 | 0.00 | 52 | 1015.6 |
| 20260901054410 | 87 | 45 | 2.0 | 7.0 | 0.00 | 0.00 | 0.00 | 51 | 1015.7 |
| 20260901053906 | 88 | 38 | 2.0 | 8.0 | 0.00 | 0.00 | 0.00 | 50 | 1015.6 |
| 20260901053401 | 88 | 78 | 3.0 | 5.0 | 0.00 | 0.00 | 0.00 | 49 | 1015.6 |
| 20260901052856 | 88 | 180 | 4.0 | 5.0 | 0.00 | 0.00 | 0.00 | 49 | 1015.7 |
| 20260901052352 | 88 | 26 | 1.0 | 2.0 | 0.00 | 0.00 | 0.00 | 48 | 1015.7 |
| 20260901051850 | 88 | 45 | 1.0 | 6.0 | 0.00 | 0.00 | 0.00 | 48 | 1015.7 |
| 20260901051346 | 89 | 45 | 1.0 | 5.0 | 0.00 | 0.00 | 0.00 | 48 | 1015.5 |
| 20260901050841 | 89 | 107 | 2.0 | 5.0 | 0.00 | 0.00 | 0.00 | 47 | 1015.5 |
| 20260901050336 | 89 | 29 | 1.0 | 2.0 | 0.00 | 0.00 | 0.00 | 46 | 1015.3 |
| 20260901045831 | 89 | 48 | 2.0 | 3.0 | 0.00 | 0.00 | 0.00 | 46 | 1015.6 |
| 20260901045330 | 89 | 97 | 2.0 | 3.0 | 0.00 | 0.00 | 0.00 | 46 | 1015.3 |
| 20260901044826 | 89 | 71 | 4.0 | 5.0 | 0.00 | 0.00 | 0.00 | 46 | 1015.4 |
| 20260901044322 | 89 | 94 | 3.0 | 6.0 | 0.00 | 0.00 | 0.00 | 45 | 1015.5 |
| 20260901043818 | 90 | 58 | 4.0 | 5.0 | 0.00 | 0.00 | 0.00 | 45 | 1015.2 |
| 20260901043314 | 89 | 24 | 0.0 | 3.0 | 0.00 | 0.00 | 0.00 | 45 | 1015.2 |
| 20260901042813 | 90 | 26 | 0.0 | 2.0 | 0.00 | 0.00 | 0.00 | 45 | 1015.2 |
| 20260901042308 | 90 | 32 | 2.0 | 2.0 | 0.00 | 0.00 | 0.00 | 45 | 1015.1 |
| 20260901041803 | 90 | 21 | 0.0 | 2.0 | 0.00 | 0.00 | 0.00 | 45 | 1015.3 |
| 20260901041258 | 90 | 32 | 1.0 | 5.0 | 0.00 | 0.00 | 0.00 | 44 | 1015.2 |
| 20260901040755 | 91 | 76 | 2.0 | 3.0 | 0.00 | 0.00 | 0.00 | 44 | 1015.4 |
| 20260901040251 | 91 | 42 | 1.0 | 2.0 | 0.00 | 0.00 | 0.00 | 44 | 1015.1 |
| 20260901035745 | 91 | 47 | 2.0 | 3.0 | 0.00 | 0.00 | 0.00 | 43 | 1015.3 |
| 20260901035244 | 91 | 69 | 3.0 | 3.0 | 0.00 | 0.00 | 0.00 | 43 | 1015.3 |
| 20260901034743 | 92 | 34 | 1.0 | 1.0 | 0.00 | 0.00 | 0.00 | 43 | 1015.0 |
| 20260901034239 | 92 | 16 | 1.0 | 2.0 | 0.00 | 0.00 | 0.00 | 42 | 1015.0 |
| 20260901033738 | 92 | 156 | 2.0 | 3.0 | 0.00 | 0.00 | 0.00 | 42 | 1015.1 |
| 20260901033237 | 92 | 43 | 1.0 | 2.0 | 0.00 | 0.00 | 0.00 | 42 | 1014.9 |
| 20260901032736 | 92 | 19 | 0.0 | 1.0 | 0.00 | 0.00 | 0.00 | 42 | 1015.2 |
| 20260901032230 | 92 | 30 | 1.0 | 1.0 | 0.00 | 0.00 | 0.00 | 41 | 1015.1 |
| 20260901031726 | 93 | 70 | 3.0 | 3.0 | 0.00 | 0.00 | 0.00 | 41 | 1015.1 |
| 20260901031221 | 93 | 312 | 2.0 | 2.0 | 0.00 | 0.00 | 0.00 | 41 | 1015.2 |
| 20260901030716 | 93 | 31 | 0.0 | 3.0 | 0.00 | 0.00 | 0.00 | 41 | 1015.2 |
| 20260901030211 | 93 | 96 | 2.0 | 5.0 | 0.00 | 0.00 | 0.00 | 41 | 1015.0 |
| 20260901025705 | 93 | 54 | 2.0 | 7.0 | 0.00 | 0.00 | 0.00 | 41 | 1015.1 |
| 20260901025200 | 93 | 89 | 3.0 | 6.0 | 0.00 | 0.00 | 0.00 | 40 | 1015.1 |
| 20260901024700 | 93 | 141 | 2.0 | 3.0 | 0.00 | 0.00 | 0.00 | 40 | 1014.9 |
| 20260901024159 | 93 | 160 | 3.0 | 3.0 | 0.00 | 0.00 | 0.00 | 40 | 1014.8 |
| 20260901023657 | 93 | 112 | 3.0 | 3.0 | 0.00 | 0.00 | 0.00 | 40 | 1014.8 |
| 20260901023152 | 93 | 28 | 2.0 | 6.0 | 0.00 | 0.00 | 0.00 | 40 | 1014.5 |
| 20260901022648 | 93 | 122 | 2.0 | 6.0 | 0.00 | 0.00 | 0.00 | 40 | 1014.5 |
| 20260901022143 | 93 | 132 | 3.0 | 5.0 | 0.00 | 0.00 | 0.00 | 40 | 1014.6 |
| 20260901021638 | 94 | 131 | 4.0 | 9.0 | 0.00 | 0.00 | 0.00 | 39 | 1014.4 |
| 20260901021133 | 94 | 64 | 3.0 | 7.0 | 0.00 | 0.00 | 0.00 | 39 | 1014.5 |
| 20260901020630 | 94 | 71 | 3.0 | 5.0 | 0.00 | 0.00 | 0.00 | 39 | 1014.2 |
| 20260901020124 | 94 | 31 | 3.0 | 6.0 | 0.00 | 0.00 | 0.00 | 39 | 1014.5 |
| 20260901015620 | 94 | 65 | 2.0 | 6.0 | 0.00 | 0.00 | 0.00 | 38 | 1014.4 |
| 20260901015120 | 94 | 42 | 3.0 | 3.0 | 0.00 | 0.00 | 0.00 | 38 | 1014.2 |
| 20260901014614 | 95 | 88 | 1.0 | 2.0 | 0.00 | 0.00 | 0.00 | 38 | 1014.3 |
| 20260901014111 | 95 | 67 | 2.0 | 3.0 | 0.00 | 0.00 | 0.00 | 37 | 1014.3 |
| 20260901013606 | 95 | 92 | 3.0 | 5.0 | 0.00 | 0.00 | 0.00 | 37 | 1014.4 |
| 20260901013101 | 96 | 172 | 3.0 | 7.0 | 0.00 | 0.00 | 0.00 | 36 | 1014.5 |
| 20260901012556 | 96 | 63 | 3.0 | 3.0 | 0.00 | 0.00 | 0.00 | 36 | 1014.2 |
| 20260901012051 | 96 | 87 | 1.0 | 2.0 | 0.00 | 0.00 | 0.00 | 35 | 1014.1 |
| 20260901011548 | 96 | 43 | 2.0 | 7.0 | 0.00 | 0.00 | 0.00 | 35 | 1014.3 |
| 20260901011045 | 96 | 140 | 3.0 | 6.0 | 0.00 | 0.00 | 0.00 | 35 | 1014.3 |
| 20260901010541 | 97 | 123 | 3.0 | 6.0 | 0.00 | 0.00 | 0.00 | 34 | 1014.1 |
| 20260901010040 | 97 | 102 | 5.0 | 6.0 | 0.00 | 0.00 | 0.00 | 34 | 1014.0 |
| 20260901005535 | 97 | 32 | 1.0 | 5.0 | 0.00 | 0.00 | 0.00 | 33 | 1013.9 |
| 20260901005030 | 97 | 124 | 5.0 | 6.0 | 0.00 | 0.00 | 0.00 | 33 | 1014.0 |
| 20260901004529 | 97 | 116 | 2.0 | 3.0 | 0.00 | 0.00 | 0.00 | 32 | 1013.9 |
| 20260901004024 | 97 | 103 | 3.0 | 5.0 | 0.00 | 0.00 | 0.00 | 32 | 1014.0 |
| 20260901003520 | 98 | 125 | 3.0 | 8.0 | 0.00 | 0.00 | 0.00 | 32 | 1013.9 |
| 20260901003018 | 98 | 58 | 2.0 | 7.0 | 0.00 | 0.00 | 0.00 | 31 | 1013.9 |
| 20260901002517 | 98 | 120 | 5.0 | 7.0 | 0.00 | 0.00 | 0.00 | 32 | 1013.9 |
| 20260901002013 | 98 | 181 | 2.0 | 7.0 | 0.00 | 0.00 | 0.00 | 31 | 1014.1 |
| 20260901001507 | 99 | 121 | 3.0 | 6.0 | 0.00 | 0.00 | 0.00 | 31 | 1013.9 |
| 20260901001002 | 98 | 122 | 4.0 | 7.0 | 0.00 | 0.00 | 0.00 | 31 | 1013.9 |
| 20260901000458 | 99 | 156 | 5.0 | 11.0 | 0.00 | 0.00 | 0.00 | 31 | 1013.8 |
| 20260831235956 | 99 | 180 | 6.0 | 8.0 | 0.00 | 0.00 | 0.00 | 31 | 1013.8 |
| 20260831235452 | 99 | 210 | 6.0 | 7.0 | 0.00 | 0.00 | 0.00 | 31 | 1013.9 |
| 20260831234947 | 99 | 160 | 2.0 | 7.0 | 0.00 | 0.00 | 0.00 | 31 | 1013.8 |
| 20260831234441 | 100 | 196 | 6.0 | 10.0 | 0.00 | 0.00 | 0.00 | 30 | 1014.0 |
| 20260831233937 | 100 | 93 | 2.0 | 3.0 | 0.00 | 0.00 | 0.00 | 29 | 1013.8 |
| 20260831233432 | 100 | 171 | 5.0 | 9.0 | 0.00 | 0.00 | 0.00 | 29 | 1014.0 |
| 20260831232928 | 99 | 125 | 6.0 | 8.0 | 0.00 | 0.00 | 0.00 | 30 | 1013.8 |
| 20260831232423 | 100 | 162 | 4.0 | 6.0 | 0.00 | 0.00 | 0.00 | 29 | 1013.7 |
| 20260831231919 | 100 | 39 | 5.0 | 9.0 | 0.00 | 0.00 | 0.00 | 30 | 1014.0 |
| 20260831231415 | 100 | 149 | 4.0 | 8.0 | 0.00 | 0.00 | 0.00 | 30 | 1013.8 |
| 20260831230911 | 99 | 164 | 6.0 | 7.0 | 0.00 | 0.00 | 0.00 | 31 | 1014.1 |
| 20260831230405 | 100 | 98 | 5.0 | 7.0 | 0.00 | 0.00 | 0.00 | 31 | 1014.1 |
| 20260831225900 | 100 | 102 | 3.0 | 6.0 | 0.00 | 0.00 | 0.00 | 32 | 1013.9 |
| 20260831225355 | 100 | 180 | 5.0 | 9.0 | 0.00 | 0.00 | 0.00 | 32 | 1013.9 |
| 20260831224850 | 100 | 97 | 3.0 | 6.0 | 0.00 | 0.00 | 0.00 | 32 | 1014.1 |
| 20260831224345 | 100 | 142 | 5.0 | 9.0 | 0.00 | 0.00 | 0.00 | 33 | 1014.1 |
| 20260831223839 | 101 | 179 | 4.0 | 7.0 | 0.00 | 0.00 | 0.00 | 31 | 1014.0 |
| 20260831223336 | 100 | 76 | 5.0 | 8.0 | 0.00 | 0.00 | 0.00 | 32 | 1014.1 |
| 20260831222832 | 100 | 88 | 6.0 | 9.0 | 0.00 | 0.00 | 0.00 | 31 | 1014.0 |
| 20260831222327 | 100 | 70 | 5.0 | 10.0 | 0.00 | 0.00 | 0.00 | 33 | 1014.4 |
| 20260831221822 | 99 | 87 | 2.0 | 8.0 | 0.00 | 0.00 | 0.00 | 33 | 1014.1 |
| 20260831221317 | 99 | 155 | 5.0 | 10.0 | 0.00 | 0.00 | 0.00 | 33 | 1014.3 |
| 20260831220812 | 99 | 110 | 7.0 | 11.0 | 0.00 | 0.00 | 0.00 | 33 | 1014.4 |
| 20260831220307 | 100 | 216 | 9.0 | 11.0 | 0.00 | 0.00 | 0.00 | 32 | 1014.4 |
| 20260831215803 | 100 | 206 | 4.0 | 10.0 | 0.00 | 0.00 | 0.00 | 32 | 1014.5 |
| 20260831215258 | 100 | 82 | 5.0 | 8.0 | 0.00 | 0.00 | 0.00 | 32 | 1014.1 |
| 20260831214755 | 100 | 205 | 7.0 | 9.0 | 0.00 | 0.00 | 0.00 | 31 | 1014.2 |
| 20260831214252 | 100 | 225 | 7.0 | 10.0 | 0.00 | 0.00 | 0.00 | 31 | 1014.5 |
| 20260831213747 | 100 | 219 | 6.0 | 9.0 | 0.00 | 0.00 | 0.00 | 31 | 1014.4 |
| 20260831213243 | 100 | 182 | 5.0 | 10.0 | 0.00 | 0.00 | 0.00 | 30 | 1014.5 |
| 20260831212738 | 99 | 65 | 7.0 | 9.0 | 0.00 | 0.00 | 0.00 | 32 | 1014.8 |
| 20260831212235 | 100 | 205 | 9.0 | 10.0 | 0.00 | 0.00 | 0.00 | 31 | 1014.5 |
| 20260831211733 | 101 | 156 | 6.0 | 8.0 | 0.00 | 0.00 | 0.00 | 31 | 1014.8 |
| 20260831211229 | 100 | 150 | 8.0 | 10.0 | 0.00 | 0.00 | 0.00 | 32 | 1015.0 |
| 20260831210723 | 100 | 234 | 7.0 | 13.0 | 0.00 | 0.00 | 0.00 | 33 | 1014.8 |
| 20260831210219 | 100 | 177 | 8.0 | 13.0 | 0.00 | 0.00 | 0.00 | 33 | 1015.2 |
| 20260831205718 | 99 | 158 | 10.0 | 14.0 | 0.00 | 0.00 | 0.00 | 31 | 1015.0 |
| 20260831205215 | 100 | 106 | 9.0 | 13.0 | 0.00 | 0.00 | 0.00 | 32 | 1015.0 |
| 20260831204709 | 99 | 150 | 5.0 | 11.0 | 0.00 | 0.00 | 0.00 | 33 | 1015.2 |
| 20260831204208 | 100 | 256 | 4.0 | 9.0 | 0.00 | 0.00 | 0.00 | 34 | 1015.3 |
| 20260831203702 | 100 | 165 | 6.0 | 13.0 | 0.00 | 0.00 | 0.00 | 34 | 1015.4 |
| 20260831203202 | 99 | 241 | 2.0 | 2.0 | 0.00 | 0.00 | 0.00 | 33 | 1015.4 |
| 20260831202700 | 98 | 152 | 5.0 | 10.0 | 0.00 | 0.00 | 0.00 | 34 | 1015.4 |
| 20260831202155 | 99 | 149 | 3.0 | 7.0 | 0.00 | 0.00 | 0.00 | 34 | 1015.6 |
| 20260831201654 | 100 | 99 | 6.0 | 14.0 | 0.00 | 0.00 | 0.00 | 34 | 1015.6 |
| 20260831201149 | 99 | 236 | 3.0 | 7.0 | 0.00 | 0.00 | 0.00 | 34 | 1015.5 |
| 20260831200645 | 99 | 168 | 4.0 | 10.0 | 0.00 | 0.00 | 0.00 | 33 | 1015.7 |
| 20260831200145 | 98 | 207 | 8.0 | 10.0 | 0.00 | 0.00 | 0.00 | 34 | 1015.9 |
| 20260831195640 | 99 | 306 | 1.0 | 9.0 | 0.00 | 0.00 | 0.00 | 35 | 1015.6 |
| 20260831195135 | 99 | 172 | 8.0 | 9.0 | 0.00 | 0.00 | 0.00 | 35 | 1016.0 |
| 20260831194630 | 98 | 218 | 2.0 | 7.0 | 0.00 | 0.00 | 0.00 | 36 | 1016.1 |
| 20260831194126 | 98 | 155 | 7.0 | 11.0 | 0.00 | 0.00 | 0.00 | 35 | 1016.2 |
| 20260831193620 | 97 | 91 | 5.0 | 16.0 | 0.00 | 0.00 | 0.00 | 35 | 1016.2 |
| 20260831193116 | 97 | 91 | 3.0 | 8.0 | 0.00 | 0.00 | 0.00 | 36 | 1016.0 |
| 20260831192611 | 98 | 145 | 5.0 | 10.0 | 0.00 | 0.00 | 0.00 | 36 | 1016.2 |
| 20260831192106 | 97 | 34 | 2.0 | 7.0 | 0.00 | 0.00 | 0.00 | 35 | 1016.4 |
| 20260831191602 | 97 | 102 | 4.0 | 9.0 | 0.00 | 0.00 | 0.00 | 37 | 1016.3 |
| 20260831191057 | 97 | 211 | 5.0 | 10.0 | 0.00 | 0.00 | 0.00 | 37 | 1016.7 |
| 20260831190553 | 97 | 120 | 9.0 | 14.0 | 0.00 | 0.00 | 0.00 | 37 | 1016.4 |
| 20260831190051 | 97 | 71 | 3.0 | 9.0 | 0.00 | 0.00 | 0.00 | 37 | 1016.4 |
| 20260831185547 | 98 | 123 | 5.0 | 14.0 | 0.00 | 0.00 | 0.00 | 36 | 1016.6 |
| 20260831185042 | 97 | 136 | 5.0 | 14.0 | 0.00 | 0.00 | 0.00 | 37 | 1016.5 |
| 20260831184536 | 97 | 149 | 5.0 | 8.0 | 0.00 | 0.00 | 0.00 | 37 | 1016.6 |
| 20260831184031 | 97 | 108 | 2.0 | 6.0 | 0.00 | 0.00 | 0.00 | 38 | 1016.5 |
| 20260831183530 | 97 | 163 | 5.0 | 13.0 | 0.00 | 0.00 | 0.00 | 37 | 1016.5 |
| 20260831183025 | 96 | 252 | 3.0 | 13.0 | 0.00 | 0.00 | 0.00 | 37 | 1016.7 |
| 20260831182519 | 96 | 152 | 9.0 | 13.0 | 0.00 | 0.00 | 0.00 | 37 | 1016.7 |
| 20260831182015 | 98 | 197 | 8.0 | 11.0 | 0.00 | 0.00 | 0.00 | 37 | 1016.8 |
| 20260831181510 | 96 | 151 | 2.0 | 9.0 | 0.00 | 0.00 | 0.00 | 37 | 1017.0 |
| 20260831181004 | 97 | 155 | 7.0 | 9.0 | 0.00 | 0.00 | 0.00 | 37 | 1016.8 |
| 20260831180459 | 97 | 32 | 1.0 | 6.0 | 0.00 | 0.00 | 0.00 | 39 | 1017.1 |
| 20260831175959 | 98 | 75 | 3.0 | 6.0 | 0.00 | 0.00 | 0.00 | 38 | 1017.2 |
| 20260831175455 | 97 | 194 | 3.0 | 5.0 | 0.00 | 0.00 | 0.00 | 38 | 1017.2 |
| 20260831174950 | 96 | 141 | 7.0 | 9.0 | 0.00 | 0.00 | 0.00 | 39 | 1017.4 |
| 20260831174446 | 95 | 250 | 4.0 | 8.0 | 0.00 | 0.00 | 0.00 | 41 | 1017.4 |
| 20260831173945 | 95 | 252 | 8.0 | 10.0 | 0.00 | 0.00 | 0.00 | 42 | 1017.6 |
| 20260831173444 | 96 | 189 | 7.0 | 13.0 | 0.00 | 0.00 | 0.00 | 41 | 1017.5 |
| 20260831172940 | 96 | 250 | 4.0 | 6.0 | 0.00 | 0.00 | 0.00 | 41 | 1017.8 |
| 20260831172435 | 96 | 188 | 4.0 | 14.0 | 0.00 | 0.00 | 0.00 | 41 | 1017.7 |
| 20260831171930 | 96 | 320 | 2.0 | 5.0 | 0.00 | 0.00 | 0.00 | 42 | 1017.7 |
| 20260831171426 | 95 | 193 | 4.0 | 7.0 | 0.00 | 0.00 | 0.00 | 42 | 1017.8 |
| 20260831170923 | 95 | 189 | 6.0 | 8.0 | 0.00 | 0.00 | 0.00 | 43 | 1017.7 |
| 20260831170419 | 94 | 181 | 3.0 | 5.0 | 0.00 | 0.00 | 0.00 | 42 | 1018.1 |
| 20260831165915 | 94 | 149 | 4.0 | 8.0 | 0.00 | 0.00 | 0.00 | 44 | 1018.3 |
| 20260831165410 | 95 | 198 | 5.0 | 8.0 | 0.00 | 0.00 | 0.00 | 43 | 1017.9 |
| 20260831164907 | 95 | 175 | 4.0 | 6.0 | 0.00 | 0.00 | 0.00 | 42 | 1017.8 |
| 20260831164403 | 95 | 200 | 4.0 | 7.0 | 0.00 | 0.00 | 0.00 | 43 | 1017.8 |
| 20260831163858 | 93 | 210 | 6.0 | 9.0 | 0.00 | 0.00 | 0.00 | 44 | 1017.7 |
| 20260831163354 | 94 | 274 | 5.0 | 9.0 | 0.00 | 0.00 | 0.00 | 44 | 1017.9 |
| 20260831162852 | 94 | 217 | 7.0 | 8.0 | 0.00 | 0.00 | 0.00 | 44 | 1017.9 |
| 20260831162348 | 93 | 221 | 3.0 | 5.0 | 0.00 | 0.00 | 0.00 | 44 | 1017.9 |
| 20260831161846 | 93 | 209 | 6.0 | 10.0 | 0.00 | 0.00 | 0.00 | 45 | 1018.2 |
| 20260831161343 | 93 | 195 | 4.0 | 6.0 | 0.00 | 0.00 | 0.00 | 44 | 1018.1 |
| 20260831160837 | 93 | 282 | 6.0 | 8.0 | 0.00 | 0.00 | 0.00 | 45 | 1018.1 |
| 20260831160332 | 92 | 203 | 3.0 | 8.0 | 0.00 | 0.00 | 0.00 | 47 | 1018.2 |
| 20260831155827 | 91 | 246 | 3.0 | 7.0 | 0.00 | 0.00 | 0.00 | 47 | 1018.1 |
| 20260831155327 | 91 | 244 | 6.0 | 8.0 | 0.00 | 0.00 | 0.00 | 47 | 1017.9 |
| 20260831154823 | 93 | 158 | 3.0 | 5.0 | 0.00 | 0.00 | 0.00 | 47 | 1018.4 |
| 20260831154319 | 92 | 344 | 3.0 | 5.0 | 0.00 | 0.00 | 0.00 | 47 | 1018.3 |
| 20260831153818 | 91 | 72 | 3.0 | 6.0 | 0.00 | 0.00 | 0.00 | 50 | 1018.1 |
| 20260831153314 | 90 | 179 | 6.0 | 9.0 | 0.00 | 0.00 | 0.00 | 50 | 1018.1 |
| 20260831152810 | 90 | 43 | 2.0 | 3.0 | 0.00 | 0.00 | 0.00 | 51 | 1018.2 |
| 20260831152306 | 89 | 46 | 1.0 | 3.0 | 0.00 | 0.00 | 0.00 | 53 | 1018.3 |
| 20260831151800 | 88 | 300 | 3.0 | 7.0 | 0.00 | 0.00 | 0.00 | 55 | 1018.3 |
| 20260831151259 | 90 | 196 | 5.0 | 7.0 | 0.00 | 0.00 | 0.00 | 54 | 1018.1 |
| 20260831150754 | 90 | 174 | 5.0 | 6.0 | 0.00 | 0.00 | 0.00 | 55 | 1017.9 |
| 20260831150250 | 89 | 34 | 1.0 | 5.0 | 0.00 | 0.00 | 0.00 | 56 | 1018.1 |
| 20260831145749 | 88 | 175 | 3.0 | 5.0 | 0.00 | 0.00 | 0.00 | 56 | 1018.1 |
| 20260831145245 | 87 | 144 | 3.0 | 6.0 | 0.00 | 0.00 | 0.00 | 57 | 1017.7 |
| 20260831144740 | 87 | 170 | 5.0 | 7.0 | 0.00 | 0.00 | 0.00 | 57 | 1017.8 |
| 20260831144239 | 87 | 226 | 4.0 | 5.0 | 0.00 | 0.00 | 0.00 | 59 | 1017.9 |
| 20260831143736 | 86 | 262 | 4.0 | 9.0 | 0.00 | 0.00 | 0.00 | 60 | 1017.9 |
| 20260831143232 | 86 | 196 | 4.0 | 6.0 | 0.00 | 0.00 | 0.00 | 60 | 1018.1 |
| 20260831142727 | 86 | 189 | 4.0 | 5.0 | 0.00 | 0.00 | 0.00 | 61 | 1017.8 |
| 20260831142223 | 85 | 314 | 2.0 | 3.0 | 0.00 | 0.00 | 0.00 | 62 | 1017.9 |
| 20260831141722 | 84 | 208 | 3.0 | 5.0 | 0.00 | 0.00 | 0.00 | 64 | 1017.9 |
| 20260831141217 | 85 | 206 | 3.0 | 6.0 | 0.00 | 0.00 | 0.00 | 64 | 1017.8 |
| 20260831140716 | 85 | 195 | 3.0 | 5.0 | 0.00 | 0.00 | 0.00 | 64 | 1018.1 |
| 20260831140211 | 85 | 28 | 0.0 | 3.0 | 0.00 | 0.00 | 0.00 | 64 | 1017.8 |
| 20260831135709 | 84 | 358 | 1.0 | 2.0 | 0.00 | 0.00 | 0.00 | 65 | 1017.8 |
| 20260831135204 | 83 | 7 | 1.0 | 2.0 | 0.00 | 0.00 | 0.00 | 66 | 1017.9 |
| 20260831134700 | 84 | 355 | 2.0 | 3.0 | 0.00 | 0.00 | 0.00 | 66 | 1017.8 |
| 20260831134156 | 83 | 338 | 1.0 | 2.0 | 0.00 | 0.00 | 0.00 | 67 | 1017.6 |
| 20260831133655 | 83 | 85 | 2.0 | 3.0 | 0.00 | 0.00 | 0.00 | 67 | 1017.4 |
| 20260831133144 | 83 | 138 | 3.0 | 5.0 | 0.00 | 0.00 | 0.00 | 67 | 1017.6 |
| 20260831132640 | 83 | 26 | 0.0 | 2.0 | 0.00 | 0.00 | 0.00 | 67 | 1017.3 |
| 20260831132139 | 82 | 46 | 1.0 | 2.0 | 0.00 | 0.00 | 0.00 | 68 | 1017.4 |
| 20260831131634 | 81 | 32 | 1.0 | 3.0 | 0.00 | 0.00 | 0.00 | 69 | 1017.4 |
| 20260831131130 | 81 | 53 | 2.0 | 3.0 | 0.00 | 0.00 | 0.00 | 70 | 1017.6 |
| 20260831130625 | 80 | 31 | 1.0 | 5.0 | 0.00 | 0.00 | 0.00 | 71 | 1017.3 |
| 20260831130121 | 80 | 34 | 2.0 | 6.0 | 0.00 | 0.00 | 0.00 | 72 | 1017.3 |
| 20260831125619 | 80 | 106 | 6.0 | 8.0 | 0.00 | 0.00 | 0.00 | 72 | 1017.3 |
| 20260831125115 | 80 | 96 | 6.0 | 7.0 | 0.00 | 0.00 | 0.00 | 70 | 1017.3 |
| 20260831124611 | 80 | 18 | 1.0 | 2.0 | 0.00 | 0.00 | 0.00 | 70 | 1017.2 |
| 20260831124107 | 80 | 62 | 2.0 | 5.0 | 0.00 | 0.00 | 0.00 | 71 | 1016.9 |
| 20260831123606 | 80 | 57 | 2.0 | 3.0 | 0.00 | 0.00 | 0.00 | 71 | 1016.9 |
| 20260831123100 | 80 | 21 | 0.0 | 2.0 | 0.00 | 0.00 | 0.00 | 70 | 1016.8 |
| 20260831122554 | 80 | 68 | 3.0 | 3.0 | 0.00 | 0.00 | 0.00 | 70 | 1016.9 |
| 20260831122050 | 80 | 73 | 1.0 | 2.0 | 0.00 | 0.00 | 0.00 | 70 | 1016.6 |
| 20260831121549 | 80 | 31 | 1.0 | 6.0 | 0.00 | 0.00 | 0.00 | 71 | 1016.3 |
| 20260831121046 | 80 | 34 | 2.0 | 6.0 | 0.00 | 0.00 | 0.00 | 71 | 1016.6 |
| 20260831120545 | 80 | 82 | 5.0 | 6.0 | 0.00 | 0.00 | 0.00 | 70 | 1016.5 |
| 20260831120041 | 81 | 67 | 4.0 | 8.0 | 0.00 | 0.00 | 0.00 | 70 | 1016.4 |
| 20260831115537 | 81 | 55 | 2.0 | 3.0 | 0.00 | 0.00 | 0.00 | 69 | 1016.3 |
| 20260831115032 | 82 | 24 | 0.0 | 2.0 | 0.00 | 0.00 | 0.00 | 68 | 1016.1 |
| 20260831114531 | 82 | 64 | 2.0 | 3.0 | 0.00 | 0.00 | 0.00 | 67 | 1016.3 |
| 20260831114026 | 82 | 31 | 2.0 | 3.0 | 0.00 | 0.00 | 0.00 | 68 | 1016.2 |
| 20260831113526 | 82 | 152 | 5.0 | 5.0 | 0.00 | 0.00 | 0.00 | 67 | 1016.1 |
| 20260831113021 | 82 | 85 | 3.0 | 6.0 | 0.00 | 0.00 | 0.00 | 67 | 1016.0 |
| 20260831112520 | 82 | 248 | 2.0 | 3.0 | 0.00 | 0.00 | 0.00 | 67 | 1015.8 |
| 20260831112015 | 82 | 353 | 1.0 | 3.0 | 0.00 | 0.00 | 0.00 | 68 | 1015.8 |
| 20260831111512 | 82 | 355 | 1.0 | 3.0 | 0.00 | 0.00 | 0.00 | 67 | 1015.6 |
| 20260831111007 | 82 | 227 | 2.0 | 3.0 | 0.00 | 0.00 | 0.00 | 67 | 1015.8 |
| 20260831110508 | 82 | 24 | 1.0 | 2.0 | 0.00 | 0.00 | 0.00 | 67 | 1015.8 |
| 20260831110002 | 82 | 113 | 2.0 | 3.0 | 0.00 | 0.00 | 0.00 | 66 | 1015.9 |
| 20260831105456 | 82 | 138 | 3.0 | 6.0 | 0.00 | 0.00 | 0.00 | 66 | 1015.7 |
| 20260831104951 | 83 | 49 | 1.0 | 3.0 | 0.00 | 0.00 | 0.00 | 66 | 1015.8 |
| 20260831104448 | 83 | 50 | 1.0 | 5.0 | 0.00 | 0.00 | 0.00 | 65 | 1015.7 |
| 20260831103943 | 83 | 314 | 2.0 | 2.0 | 0.00 | 0.00 | 0.00 | 65 | 1015.6 |
| 20260831103438 | 83 | 57 | 1.0 | 2.0 | 0.00 | 0.00 | 0.00 | 64 | 1015.9 |
| 20260831102934 | 83 | 26 | 0.0 | 2.0 | 0.00 | 0.00 | 0.00 | 64 | 1015.8 |
| 20260831102434 | 83 | 53 | 2.0 | 3.0 | 0.00 | 0.00 | 0.00 | 65 | 1015.8 |
| 20260831101928 | 83 | 32 | 1.0 | 3.0 | 0.00 | 0.00 | 0.00 | 65 | 1015.9 |
| 20260831101424 | 83 | 45 | 2.0 | 3.0 | 0.00 | 0.00 | 0.00 | 64 | 1015.4 |
| 20260831100920 | 84 | 76 | 2.0 | 2.0 | 0.00 | 0.00 | 0.00 | 64 | 1015.7 |
| 20260831100415 | 84 | 38 | 1.0 | 3.0 | 0.00 | 0.00 | 0.00 | 65 | 1015.7 |
| 20260831095910 | 84 | 147 | 3.0 | 5.0 | 0.00 | 0.00 | 0.00 | 64 | 1015.5 |
| 20260831095410 | 85 | 23 | 0.0 | 2.0 | 0.00 | 0.00 | 0.00 | 63 | 1015.7 |
| 20260831094904 | 84 | 79 | 2.0 | 3.0 | 0.00 | 0.00 | 0.00 | 64 | 1015.6 |
| 20260831094401 | 85 | 33 | 1.0 | 5.0 | 0.00 | 0.00 | 0.00 | 63 | 1015.7 |
| 20260831093856 | 84 | 215 | 6.0 | 7.0 | 0.00 | 0.00 | 0.00 | 64 | 1015.5 |
| 20260831093351 | 85 | 215 | 3.0 | 5.0 | 0.00 | 0.00 | 0.00 | 63 | 1015.7 |
| 20260831092848 | 85 | 283 | 4.0 | 7.0 | 0.00 | 0.00 | 0.00 | 62 | 1015.6 |
| 20260831092343 | 85 | 220 | 5.0 | 7.0 | 0.00 | 0.00 | 0.00 | 62 | 1015.5 |
| 20260831091838 | 85 | 37 | 0.0 | 5.0 | 0.00 | 0.00 | 0.00 | 62 | 1015.4 |
| 20260831091334 | 85 | 302 | 2.0 | 6.0 | 0.00 | 0.00 | 0.00 | 61 | 1015.3 |
| 20260831090829 | 85 | 158 | 4.0 | 8.0 | 0.00 | 0.00 | 0.00 | 61 | 1015.3 |
| 20260831090325 | 85 | 151 | 3.0 | 7.0 | 0.00 | 0.00 | 0.00 | 60 | 1015.4 |
| 20260831085821 | 85 | 318 | 2.0 | 5.0 | 0.00 | 0.00 | 0.00 | 60 | 1015.4 |
| 20260831085315 | 86 | 175 | 5.0 | 6.0 | 0.00 | 0.00 | 0.00 | 59 | 1015.1 |
| 20260831084810 | 86 | 245 | 6.0 | 9.0 | 0.00 | 0.00 | 0.00 | 59 | 1015.3 |
| 20260831084306 | 86 | 206 | 4.0 | 6.0 | 0.00 | 0.00 | 0.00 | 58 | 1015.5 |
| 20260831083802 | 86 | 190 | 3.0 | 8.0 | 0.00 | 0.00 | 0.00 | 58 | 1015.3 |
| 20260831083257 | 86 | 229 | 7.0 | 8.0 | 0.00 | 0.00 | 0.00 | 57 | 1015.1 |
| 20260831082756 | 86 | 239 | 6.0 | 7.0 | 0.00 | 0.00 | 0.00 | 56 | 1015.0 |
| 20260831082251 | 86 | 217 | 5.0 | 8.0 | 0.00 | 0.00 | 0.00 | 56 | 1015.1 |
| 20260831081747 | 86 | 257 | 5.0 | 10.0 | 0.00 | 0.00 | 0.00 | 56 | 1015.0 |
| 20260831081242 | 86 | 278 | 3.0 | 14.0 | 0.00 | 0.00 | 0.00 | 55 | 1015.2 |
| 20260831080737 | 86 | 256 | 5.0 | 13.0 | 0.00 | 0.00 | 0.00 | 55 | 1015.2 |
| 20260831080232 | 86 | 219 | 6.0 | 13.0 | 0.00 | 0.00 | 0.00 | 55 | 1015.2 |
| 20260831075728 | 86 | 211 | 7.0 | 10.0 | 0.00 | 0.00 | 0.00 | 54 | 1015.1 |
| 20260831075224 | 87 | 245 | 3.0 | 8.0 | 0.00 | 0.00 | 0.00 | 54 | 1015.1 |
| 20260831074722 | 87 | 249 | 8.0 | 10.0 | 0.00 | 0.00 | 0.00 | 53 | 1014.8 |
| 20260831074217 | 87 | 223 | 4.0 | 9.0 | 0.00 | 0.00 | 0.00 | 53 | 1014.8 |
| 20260831073713 | 87 | 228 | 5.0 | 10.0 | 0.00 | 0.00 | 0.00 | 52 | 1015.2 |
| 20260831073211 | 87 | 199 | 9.0 | 11.0 | 0.00 | 0.00 | 0.00 | 52 | 1015.1 |
| 20260831072707 | 87 | 168 | 8.0 | 11.0 | 0.00 | 0.00 | 0.00 | 51 | 1015.0 |
| 20260831072203 | 87 | 280 | 3.0 | 8.0 | 0.00 | 0.00 | 0.00 | 50 | 1014.8 |